[[{"header":{"parameterUnit":"m.s-1","parameterCategory":1,"la1":30.2991,"la2":30.254,"lo1":-89.0895,"lo2":-89.0444,"dy":0.0017,"dx":0.0017,"nx":28,"ny":28,"refTime":"2023-10-13T21:00:00:Z","depth":0,"parameterNumber":2,"parameterNumberName":"U-component_of_WINDS"},"data":[0,0,0,0,0,0,0,0,0,0,0,0,0,0,0,0,0,0,0,0,0,0,0,0,0,0,0,0,0,0,0,0,0,0,0,0,0,0,0,0,0,0,0,0,0,0,0,0,0,0,0,0,0,0,0,0,0,0,2.9026,2.9026,0,2.9036,2.9036,2.9036,2.8993,2.8992,2.899,2.8989,2.8998,2.9,2.9001,0,0,0,0,0,0,0,0,0,0,0,0,0,2.8969,2.8971,2.9026,2.9026,2.9026,2.9036,2.9036,2.9036,2.8993,2.8991,2.899,2.8988,2.8998,2.9,2.9001,0,0,0,0,0,0,0,0,0,0,0,0,0,2.8988,2.8971,2.9026,2.9006,2.9004,2.9036,2.9036,2.9036,2.8993,2.8991,2.899,2.8988,2.8997,2.8999,2.9002,2.9053,0,0,2.9008,2.9009,0,0,0,0,0,0,0,0,2.8987,2.899,2.9009,2.9007,2.9006,2.9011,2.902,2.9042,2.8994,2.8997,2.8989,2.8987,2.9004,2.9006,2.9012,2.9053,2.9054,2.9008,2.901,2.901,2.9011,0,0,0,0,0,0,0,2.8986,2.899,2.903,2.9009,2.9007,2.8996,2.8997,2.9024,2.9011,2.8997,2.8994,2.8996,2.9003,2.901,2.9012,2.9054,2.9008,2.901,2.9011,2.9012,2.9139,2.9141,0,0,0,0,0,0,2.8987,2.8989,2.903,2.903,2.8991,2.8999,2.9,2.9011,2.9011,2.9009,2.8997,2.8994,2.9007,2.9009,2.9012,2.9072,2.901,2.9012,2.9014,2.9137,2.9139,2.9142,0,0,0,0,0,0,2.8986,2.8991,2.9029,2.9009,2.9013,2.9002,2.9016,2.9013,2.9019,2.9011,2.9009,2.9007,2.9006,2.9009,2.9043,2.9071,2.9013,2.9015,2.9135,2.9138,2.9141,2.9192,0,0,0,0,0,0,2.8985,2.8991,2.901,2.9009,2.9014,2.9061,2.9017,2.9014,2.9023,2.9018,2.9019,2.9017,2.9004,2.904,2.9045,2.9073,2.9017,2.9132,2.9136,2.914,2.9188,2.9197,2.9205,0,0,0,0,0,2.8983,2.9024,2.9012,2.9017,2.9038,2.9062,2.9065,2.9049,2.9026,2.9045,2.904,2.9017,2.9068,2.9044,2.905,2.9079,2.913,2.9135,2.9139,2.9184,2.9195,2.9204,0,0,0,0,0,0,2.9028,2.9024,2.901,2.9052,2.9058,2.9055,2.9079,2.9061,2.9073,2.9068,2.9048,2.9049,2.9087,2.9086,2.906,2.9129,2.9095,2.9101,2.9127,2.9138,2.9146,2.9144,2.9019,0,0,0,0,0,2.9043,2.9064,2.9059,2.9096,2.91,2.9089,2.9099,2.9087,2.9092,2.9094,2.9092,2.9098,2.9115,2.9126,2.9142,2.9189,2.9188,2.9211,2.922,2.9226,2.9231,2.9256,2.9267,2.9157,2.9157,2.9157,0,0,2.9074,2.9074,2.9088,2.9106,2.9109,2.913,2.9092,2.9116,2.9131,2.9098,2.913,2.9129,2.9134,2.9175,2.9193,2.9176,2.9262,2.9232,2.9238,2.9239,2.9262,2.9273,2.9282,2.916,2.916,2.9159,0,0,2.9141,2.9143,2.9175,2.918,2.9185,2.9178,2.9186,2.9186,2.9184,2.9217,2.9192,2.9211,2.9241,2.9246,2.9252,2.9323,2.9303,2.9329,2.9371,2.9396,2.9404,2.9412,2.9437,2.9446,2.9334,2.9335,2.9335,0,2.9178,2.9209,2.9194,2.922,2.9228,2.92,2.9232,2.9238,2.9248,2.9254,2.9235,2.9273,2.9275,2.9317,2.9334,2.9341,2.9349,2.9328,2.9405,2.9412,2.9419,2.9442,2.9452,2.9338,2.9337,2.9337,2.9337,0,2.9255,2.9278,2.9303,2.9314,2.9326,2.9355,2.9344,2.9357,2.9345,2.934,2.9374,2.9375,2.939,2.94,2.9387,2.944,2.9429,2.9408,2.9373,2.9432,2.9454,2.9463,2.9342,2.9341,2.934,2.9339,0,0,2.9348,2.9352,2.9361,2.9367,2.9372,2.9389,2.9418,2.9433,2.9445,2.9454,2.9477,2.9504,2.9485,2.9492,2.9481,2.9502,2.9559,2.9478,2.9478,2.9492,2.9617,2.9632,2.9643,2.9546,2.9548,2.9549,2.9616,0,2.9413,2.9462,2.9449,2.9497,2.9518,2.9493,2.9518,2.9524,2.952,2.9537,2.9534,2.9553,2.9526,2.953,2.9551,2.9547,2.9583,2.9543,2.9567,2.9568,2.9565,2.9654,2.967,2.9733,2.9625,2.9626,2.9627,0,2.9495,2.9508,2.9558,2.9561,2.9569,2.9592,2.9606,2.9623,2.9629,2.9626,2.9635,2.9619,2.9647,2.9614,2.9653,2.9625,2.9635,2.9635,2.9637,2.9637,2.96,2.9656,2.9753,2.9762,2.964,2.9639,2.9638,0,2.9557,2.9587,2.9621,2.9627,2.9631,2.9647,2.965,2.9655,2.9666,2.9678,2.9685,2.9701,2.9709,2.9721,2.971,2.9687,2.9751,2.9716,2.9748,2.9748,2.976,2.9759,2.9859,2.9769,2.9769,2.9769,2.9769,0,2.963,2.9662,2.9649,2.967,2.9705,2.9691,2.9726,2.9726,2.9731,2.9751,2.9731,2.9751,2.9736,2.9754,2.9746,2.9779,2.9783,2.978,2.9778,2.9781,2.9782,2.9786,2.9781,2.9771,2.9771,2.977,2.977,0,2.9704,2.9697,2.9733,2.9735,2.9736,2.9762,2.9763,2.9783,2.9779,2.9805,2.9811,2.9804,2.9825,2.9816,2.9838,2.9832,2.9875,2.9867,2.9872,2.987,2.9901,2.9898,3.0006,3.0019,2.9922,2.9923,2.9924,0,2.975,2.9774,2.9779,2.9792,2.9796,2.9817,2.9828,2.9816,2.9828,2.9839,2.9857,2.9876,2.9891,2.9925,2.9922,2.9939,2.9931,2.9968,2.9933,2.9936,2.993,2.9928,2.993,2.9974,2.9975,2.9976,2.9977,0,2.9833,2.9829,2.9846,2.9862,2.9876,2.9889,2.9899,2.991,2.9899,2.9914,2.9935,2.9947,2.997,2.9989,3.0004,3.0007,2.999,2.9988,2.9996,2.9999,3.0001,3.0,2.989,2.9985,2.9984,2.9983,2.9983,2.9983,2.9894,2.9914,2.9921,2.9941,2.9948,2.9959,2.9977,2.9976,2.9994,3.0012,3.0004,3.0029,3.0036,3.0055,3.006,3.0079,3.0065,3.0077,3.0079,3.0082,3.0086,3.0,3.0082,3.0082,3.0082,3.0082,3.0081,0,2.9974,2.9978,2.9997,3.0013,3.0029,3.0013,3.0024,3.0038,3.006,3.0069,3.0084,3.0109,3.0128,3.0128,3.0146,3.0161,3.0154,3.0166,3.0164,3.0165,3.0098,3.0089,3.0172,3.0172,3.0172,3.0172,3.0172,3.0172,3.0018,3.0051,3.0049,3.0086,3.0089,3.0114,3.0122,3.0131,3.0138,3.0167,3.0183,3.0184,3.0189,3.0207,3.0224,3.0223,3.023,3.0245,3.0242,3.0179,3.017,3.0161,3.0152,3.0247,3.0247,3.0307,3.0307,3.0308]},{"header":{"parameterUnit":"m.s-1","parameterCategory":1,"la1":30.2991,"la2":30.254,"lo1":-89.0895,"lo2":-89.0444,"dy":0.0017,"dx":0.0017,"nx":28,"ny":28,"refTime":"2023-10-13T21:00:00:Z","depth":0,"parameterNumber":3,"parameterNumberName":"V-component_of_WINDS"},"data":[0,0,0,0,0,0,0,0,0,0,0,0,0,0,0,0,0,0,0,0,0,0,0,0,0,0,0,0,0,0,0,0,0,0,0,0,0,0,0,0,0,0,0,0,0,0,0,0,0,0,0,0,0,0,0,0,0,0,-6.2074,-6.2077,0,-6.2285,-6.2288,-6.229,-6.2249,-6.2245,-6.2242,-6.2238,-6.2448,-6.2457,-6.2466,0,0,0,0,0,0,0,0,0,0,0,0,0,-6.1632,-6.164,-6.2074,-6.2077,-6.208,-6.2285,-6.2288,-6.2291,-6.225,-6.2245,-6.2241,-6.2236,-6.2445,-6.2456,-6.2466,0,0,0,0,0,0,0,0,0,0,0,0,0,-6.1831,-6.1643,-6.2074,-6.2084,-6.2087,-6.2284,-6.2288,-6.2291,-6.2251,-6.2245,-6.2239,-6.2234,-6.2441,-6.2454,-6.2468,-6.2666,0,0,-6.251,-6.2516,0,0,0,0,0,0,0,0,-6.182,-6.1848,-6.208,-6.2084,-6.2087,-6.2235,-6.2209,-6.2417,-6.2252,-6.2189,-6.2238,-6.2231,-6.2381,-6.2399,-6.2451,-6.2676,-6.2685,-6.2511,-6.2519,-6.2525,-6.2529,0,0,0,0,0,0,0,-6.1806,-6.1838,-6.2157,-6.2083,-6.2088,-6.2077,-6.2099,-6.2248,-6.2314,-6.2194,-6.2191,-6.2217,-6.2382,-6.2438,-6.2456,-6.2688,-6.2511,-6.2523,-6.2531,-6.2536,-6.3087,-6.3093,0,0,0,0,0,0,-6.179,-6.1827,-6.2151,-6.2164,-6.1937,-6.2089,-6.2114,-6.2193,-6.2312,-6.2325,-6.2222,-6.2214,-6.2418,-6.244,-6.2463,-6.2705,-6.2525,-6.2538,-6.2546,-6.3081,-6.3089,-6.3096,0,0,0,0,0,0,-6.178,-6.1819,-6.2142,-6.1995,-6.2035,-6.2103,-6.2193,-6.2201,-6.2257,-6.2334,-6.2344,-6.2267,-6.2414,-6.2444,-6.2617,-6.2711,-6.2544,-6.2556,-6.3073,-6.3083,-6.3092,-6.3188,0,0,0,0,0,0,-6.1768,-6.1816,-6.1893,-6.1997,-6.2043,-6.2294,-6.2198,-6.2209,-6.2281,-6.2274,-6.2379,-6.2391,-6.2412,-6.2597,-6.263,-6.2727,-6.2567,-6.3065,-6.3078,-6.3089,-6.3177,-6.32,-6.3219,0,0,0,0,0,-6.1752,-6.191,-6.1897,-6.1936,-6.2141,-6.23,-6.2326,-6.2348,-6.2289,-6.2366,-6.2416,-6.2388,-6.2695,-6.2615,-6.2652,-6.2754,-6.3059,-6.3074,-6.3088,-6.3167,-6.3195,-6.3219,0,0,0,0,0,0,-6.1812,-6.1923,-6.1911,-6.2107,-6.2195,-6.2293,-6.2391,-6.2377,-6.2482,-6.247,-6.2491,-6.2516,-6.2692,-6.274,-6.2648,-6.2953,-6.2869,-6.2891,-6.2916,-6.2943,-6.2964,-6.2949,-6.2578,0,0,0,0,0,-6.1849,-6.197,-6.206,-6.2224,-6.2269,-6.2323,-6.2392,-6.2403,-6.2493,-6.2529,-6.2591,-6.2679,-6.2795,-6.2871,-6.2983,-6.3183,-6.3206,-6.3272,-6.3293,-6.331,-6.333,-6.3441,-6.3472,-6.3143,-6.3143,-6.3143,0,0,-6.1925,-6.2,-6.2075,-6.2238,-6.2307,-6.2431,-6.2354,-6.2488,-6.258,-6.2549,-6.2717,-6.2766,-6.2865,-6.3053,-6.3139,-6.3099,-6.3426,-6.3329,-6.3342,-6.3352,-6.3459,-6.349,-6.3518,-6.3153,-6.3151,-6.315,0,0,-6.2127,-6.2196,-6.2342,-6.2413,-6.252,-6.2555,-6.259,-6.2691,-6.2723,-6.2893,-6.2873,-6.2981,-6.3181,-6.3253,-6.3316,-6.3547,-6.3526,-6.3583,-6.3694,-6.3802,-6.3828,-6.3851,-6.3935,-6.3965,-6.3602,-6.3602,-6.3602,0,-6.2207,-6.2395,-6.2417,-6.2555,-6.2627,-6.2608,-6.2755,-6.2822,-6.2959,-6.3009,-6.2962,-6.3215,-6.3279,-6.3485,-6.3542,-6.3593,-6.3633,-6.3571,-6.3823,-6.3846,-6.3868,-6.3948,-6.398,-6.3608,-6.3607,-6.3607,-6.3606,0,-6.2489,-6.262,-6.2724,-6.286,-6.2944,-6.3085,-6.3128,-6.321,-6.3213,-6.3253,-6.3426,-6.3504,-6.3632,-6.3681,-6.3683,-6.3887,-6.3859,-6.3818,-6.3733,-6.3906,-6.3981,-6.4012,-6.3617,-6.3615,-6.3613,-6.3612,0,0,-6.2735,-6.2883,-6.2921,-6.2983,-6.31,-6.32,-6.3341,-6.3468,-6.3539,-6.3633,-6.3751,-6.3922,-6.3885,-6.3956,-6.3967,-6.4062,-6.4242,-6.4009,-6.4011,-6.4051,-6.4473,-6.4505,-6.454,-6.4228,-6.4234,-6.4239,-6.4465,0,-6.2949,-6.3199,-6.3225,-6.3448,-6.3569,-6.3553,-6.3675,-6.3759,-6.38,-6.3908,-6.3952,-6.4073,-6.4014,-6.4058,-6.4151,-6.4201,-6.4327,-6.4184,-6.4338,-6.4343,-6.4315,-6.4579,-6.4613,-6.4823,-6.4495,-6.45,-6.4503,0,-6.3232,-6.3339,-6.3575,-6.3677,-6.3729,-6.3839,-6.3958,-6.4061,-6.4156,-6.4179,-6.4261,-6.4259,-6.4403,-6.4313,-6.4511,-6.4414,-6.4478,-6.4512,-6.452,-6.4536,-6.4435,-6.4604,-6.489,-6.4922,-6.455,-6.4546,-6.4543,0,-6.339,-6.3591,-6.376,-6.3813,-6.3935,-6.4013,-6.4068,-6.4157,-6.4233,-6.4336,-6.4386,-6.4504,-6.4569,-6.466,-6.469,-6.4621,-6.4888,-6.4799,-6.4911,-6.491,-6.4968,-6.4964,-6.527,-6.5007,-6.5007,-6.5006,-6.5006,0,-6.3627,-6.3772,-6.3833,-6.3936,-6.4099,-6.4126,-6.4285,-6.4335,-6.4416,-6.4528,-6.452,-6.4625,-6.4658,-6.4769,-6.4793,-6.4954,-6.4983,-6.5005,-6.501,-6.5007,-6.5005,-6.505,-6.5037,-6.5015,-6.5013,-6.5011,-6.501,0,-6.3831,-6.3877,-6.4059,-6.4161,-6.419,-6.4306,-6.4392,-6.4492,-6.4531,-6.4674,-6.4708,-6.477,-6.49,-6.494,-6.5095,-6.5111,-6.5301,-6.5292,-6.527,-6.5271,-6.538,-6.537,-6.5727,-6.5776,-6.548,-6.5483,-6.5485,0,-6.398,-6.4092,-6.4207,-6.4283,-6.4341,-6.4463,-6.454,-6.4571,-6.4652,-6.477,-6.4856,-6.4985,-6.509,-6.5298,-6.5356,-6.5475,-6.547,-6.5587,-6.5487,-6.5481,-6.5473,-6.5467,-6.5479,-6.5605,-6.5609,-6.5611,-6.5613,0,-6.424,-6.4258,-6.4371,-6.4494,-6.4588,-6.4685,-6.4779,-6.4841,-6.4884,-6.4976,-6.5111,-6.5192,-6.5353,-6.5481,-6.5603,-6.5657,-6.5643,-6.5644,-6.5676,-6.5675,-6.5658,-6.5671,-6.5323,-6.5636,-6.5634,-6.5632,-6.5631,-6.563,-6.4422,-6.4522,-6.4619,-6.4746,-6.482,-6.4909,-6.5008,-6.5061,-6.5174,-6.5309,-6.532,-6.5465,-6.5558,-6.5721,-6.5781,-6.5895,-6.586,-6.5907,-6.5919,-6.593,-6.594,-6.564,-6.5916,-6.5916,-6.5915,-6.5915,-6.5914,0,-6.4683,-6.4745,-6.4862,-6.4995,-6.5095,-6.5075,-6.5178,-6.5263,-6.5392,-6.5481,-6.5586,-6.5741,-6.5866,-6.5934,-6.6058,-6.6136,-6.6133,-6.6168,-6.6163,-6.6176,-6.5963,-6.5923,-6.6169,-6.6169,-6.6168,-6.6168,-6.6168,-6.6168,-6.4831,-6.4999,-6.5029,-6.5234,-6.5294,-6.5439,-6.55,-6.5581,-6.5653,-6.5827,-6.5932,-6.5976,-6.6057,-6.6188,-6.6301,-6.6318,-6.6365,-6.6404,-6.6417,-6.6217,-6.6191,-6.6166,-6.6129,-6.6414,-6.6414,-6.6621,-6.6623,-6.6625]}]]